[[{"header":{"parameterUnit":"m.s-1","parameterCategory":2,"la1":30.2991,"la2":30.254,"lo1":-89.0895,"lo2":-89.0444,"dx":0.0017,"dy":0.0017,"nx":28,"ny":28,"refTime":"2022-12-23T15:00:00:Z","depth":"0","parameterNumber":2,"parameterNumberName":"U-component_of_CURRENTS"},"data":[0,0,0,0,0,0,0,0,0,0,0,0,0,0,0,0,0,0,0,0,0,0,0,0,0,0,0,0,0,0,0,0,0,0,0,0,0,0,0,0,0,0,0,0,0,0,0,0,0,0,0,0,0,0,0,0,0,0,0.5391,0.5391,0,0.5347,0.5346,0.5345,0.5306,0.5306,0.5306,0.5307,0.5206,0.5203,0.52,0,0,0,0,0,0,0,0,0,0,0,0,0,0.529,0.5292,0.5391,0.5391,0.5391,0.5347,0.5346,0.5345,0.5306,0.5306,0.5306,0.5307,0.5207,0.5204,0.52,0,0,0,0,0,0,0,0,0,0,0,0,0,0.5292,0.5293,0.5391,0.5372,0.537,0.5348,0.5346,0.5344,0.5306,0.5306,0.5307,0.5307,0.5208,0.5204,0.52,0.5167,0,0,0.5187,0.5185,0,0,0,0,0,0,0,0,0.5292,0.5295,0.5375,0.5373,0.5371,0.5339,0.5274,0.5285,0.5306,0.5323,0.5307,0.5307,0.525,0.5242,0.5224,0.5163,0.5158,0.5186,0.5184,0.5182,0.5181,0,0,0,0,0,0,0,0.5292,0.5296,0.5366,0.5375,0.5373,0.5314,0.5315,0.5275,0.5279,0.5321,0.532,0.5326,0.5247,0.5228,0.5221,0.5157,0.5186,0.5183,0.518,0.5178,0.5117,0.5118,0,0,0,0,0,0,0.532,0.5297,0.5368,0.5366,0.534,0.5317,0.5318,0.5343,0.528,0.5273,0.5326,0.5325,0.5235,0.5226,0.5217,0.5217,0.5182,0.5178,0.5175,0.5116,0.5117,0.5118,0,0,0,0,0,0,0.5319,0.5328,0.537,0.5334,0.5337,0.532,0.5347,0.5342,0.534,0.5286,0.5277,0.5333,0.5235,0.5223,0.5187,0.5212,0.5176,0.5172,0.5115,0.5116,0.5117,0.519,0,0,0,0,0,0,0.5316,0.5328,0.5348,0.5337,0.534,0.5376,0.5348,0.5341,0.5346,0.5344,0.5288,0.5278,0.5234,0.5194,0.5183,0.5205,0.5169,0.5114,0.5115,0.5117,0.5187,0.5194,0.52,0,0,0,0,0,0.5313,0.5345,0.535,0.5358,0.5372,0.5378,0.5373,0.5355,0.5347,0.5352,0.5305,0.5281,0.5198,0.519,0.5177,0.5199,0.5113,0.5115,0.5117,0.5184,0.5192,0.52,0,0,0,0,0,0,0.5291,0.5345,0.5349,0.5391,0.5394,0.5374,0.5378,0.5369,0.5336,0.5332,0.5276,0.5262,0.5248,0.5211,0.5204,0.5189,0.5158,0.5158,0.5213,0.5221,0.5228,0.5277,0.5165,0,0,0,0,0,0.5304,0.5359,0.5373,0.5406,0.5413,0.5398,0.5397,0.539,0.5365,0.5352,0.5308,0.5268,0.5244,0.5223,0.5191,0.5167,0.5188,0.5179,0.5186,0.5192,0.5225,0.5261,0.5275,0.5125,0.5125,0.5125,0,0,0.5296,0.5342,0.5363,0.5407,0.5405,0.5413,0.5396,0.5409,0.5412,0.5345,0.5321,0.529,0.5245,0.5226,0.5218,0.5197,0.5249,0.5195,0.52,0.523,0.5265,0.528,0.5293,0.5126,0.5126,0.5126,0,0,0.5315,0.5357,0.5401,0.5417,0.5444,0.5435,0.5449,0.5436,0.543,0.5404,0.5371,0.5361,0.5291,0.5282,0.5265,0.5292,0.5289,0.5277,0.5341,0.5375,0.5389,0.54,0.5463,0.548,0.5273,0.5273,0.5274,0,0.5286,0.5364,0.5405,0.5443,0.5452,0.5452,0.5467,0.5463,0.5436,0.5433,0.5408,0.5362,0.5328,0.5335,0.5349,0.5312,0.5336,0.531,0.5387,0.5399,0.541,0.547,0.5488,0.5277,0.5277,0.5276,0.5276,0,0.5345,0.5386,0.541,0.5467,0.548,0.5496,0.5505,0.5508,0.5494,0.5483,0.5487,0.5447,0.5428,0.5418,0.5389,0.5451,0.5447,0.5398,0.5371,0.543,0.5489,0.5507,0.5283,0.5281,0.528,0.5279,0,0,0.5295,0.5422,0.5424,0.5451,0.5494,0.5506,0.5528,0.5541,0.5567,0.5541,0.5571,0.5545,0.5543,0.5529,0.5505,0.5539,0.5643,0.551,0.551,0.5583,0.5749,0.579,0.5813,0.5601,0.5603,0.5606,0.5766,0,0.5302,0.539,0.5449,0.5482,0.5507,0.5531,0.5553,0.5572,0.5583,0.5612,0.561,0.5627,0.5579,0.5592,0.5619,0.5643,0.5689,0.5606,0.5672,0.5676,0.5714,0.5834,0.5888,0.6039,0.5783,0.5786,0.5788,0,0.533,0.5382,0.544,0.5506,0.5517,0.5539,0.5588,0.5613,0.5666,0.5685,0.5715,0.5717,0.5783,0.5728,0.5816,0.5765,0.5778,0.579,0.5794,0.5826,0.575,0.5934,0.6079,0.6187,0.5814,0.5812,0.581,0,0.5292,0.5369,0.5422,0.5442,0.5513,0.5537,0.5569,0.5625,0.5661,0.5754,0.5796,0.5849,0.5901,0.5925,0.5958,0.5895,0.6066,0.5966,0.6019,0.6022,0.6082,0.6086,0.6352,0.6041,0.604,0.604,0.6039,0,0.5287,0.5314,0.5412,0.5431,0.5463,0.553,0.5577,0.5629,0.5722,0.5785,0.5838,0.5924,0.5955,0.6036,0.6032,0.6121,0.6125,0.6091,0.6083,0.6109,0.6113,0.6215,0.6244,0.6046,0.6045,0.6043,0.6042,0,0.5243,0.5318,0.5362,0.5436,0.5453,0.5481,0.5564,0.5601,0.5717,0.5817,0.5858,0.601,0.6152,0.6184,0.6273,0.6238,0.6243,0.6312,0.6364,0.6361,0.6473,0.6501,0.6287,0.6091,0.6405,0.6407,0.6409,0,0.5243,0.5267,0.5341,0.5353,0.5385,0.5432,0.5453,0.5572,0.5636,0.587,0.5924,0.6122,0.6258,0.6441,0.6482,0.6545,0.6358,0.6569,0.6448,0.656,0.6585,0.6162,0.5977,0.6564,0.6567,0.6569,0.6571,0,0.5195,0.5231,0.5262,0.5287,0.5314,0.5334,0.5403,0.5463,0.563,0.5755,0.5981,0.6138,0.6411,0.6558,0.6668,0.6691,0.6456,0.6618,0.6725,0.6763,0.6328,0.6111,0.6389,0.6593,0.6591,0.6589,0.6588,0.6587,0.5142,0.5149,0.5191,0.5203,0.522,0.5231,0.5217,0.5339,0.5454,0.5655,0.5932,0.6199,0.6597,0.6809,0.6757,0.6933,0.6601,0.6919,0.6957,0.6519,0.6296,0.6644,0.6826,0.6825,0.6824,0.6824,0.6823,0,0.5038,0.5065,0.5091,0.5085,0.505,0.5102,0.5154,0.5138,0.5228,0.5621,0.5835,0.6408,0.6698,0.6948,0.7353,0.7374,0.6845,0.7307,0.6829,0.6626,0.7042,0.7032,0.7279,0.7279,0.7279,0.7279,0.7278,0.7278,0.4993,0.4973,0.4993,0.491,0.4898,0.4782,0.4786,0.4815,0.5056,0.5429,0.5826,0.6193,0.7003,0.7819,0.81,0.7885,0.7398,0.7175,0.6937,0.7519,0.7485,0.7452,0.7453,0.7783,0.7784,0.6254,0.6246,0.624]},{"header":{"parameterUnit":"m.s-1","parameterCategory":2,"la1":30.2991,"la2":30.254,"lo1":-89.0895,"lo2":-89.0444,"dx":0.0017,"dy":0.0017,"nx":28,"ny":28,"refTime":"2022-12-23T15:00:00:Z","depth":"0","parameterNumber":3,"parameterNumberName":"V-component_of_CURRENTS"},"data":[0,0,0,0,0,0,0,0,0,0,0,0,0,0,0,0,0,0,0,0,0,0,0,0,0,0,0,0,0,0,0,0,0,0,0,0,0,0,0,0,0,0,0,0,0,0,0,0,0,0,0,0,0,0,0,0,0,0,-0.0262,-0.0262,0,-0.0302,-0.0303,-0.0303,-0.036,-0.0361,-0.0362,-0.0362,-0.0455,-0.0457,-0.0458,0,0,0,0,0,0,0,0,0,0,0,0,0,-0.0218,-0.0219,-0.0262,-0.0262,-0.0262,-0.0302,-0.0303,-0.0303,-0.036,-0.0361,-0.0362,-0.0363,-0.0454,-0.0456,-0.0458,0,0,0,0,0,0,0,0,0,0,0,0,0,-0.0247,-0.0219,-0.0262,-0.0294,-0.0297,-0.0302,-0.0303,-0.0304,-0.036,-0.0361,-0.0362,-0.0363,-0.0454,-0.0456,-0.0459,-0.0451,0,0,-0.0467,-0.0468,0,0,0,0,0,0,0,0,-0.0246,-0.0249,-0.0289,-0.0292,-0.0295,-0.0326,-0.0321,-0.0355,-0.0359,-0.0338,-0.0362,-0.0364,-0.0414,-0.042,-0.0427,-0.0455,-0.0459,-0.0467,-0.0468,-0.047,-0.047,0,0,0,0,0,0,0,-0.0244,-0.0248,-0.028,-0.0289,-0.0293,-0.0301,-0.0307,-0.0328,-0.0371,-0.034,-0.0344,-0.0345,-0.0417,-0.0424,-0.043,-0.046,-0.0467,-0.0469,-0.0471,-0.0472,-0.0476,-0.0475,0,0,0,0,0,0,-0.0235,-0.0246,-0.0278,-0.0281,-0.0271,-0.0301,-0.0307,-0.0316,-0.037,-0.0378,-0.0344,-0.0347,-0.0419,-0.0427,-0.0433,-0.04,-0.047,-0.0472,-0.0473,-0.0478,-0.0476,-0.0475,0,0,0,0,0,0,-0.0234,-0.0237,-0.0277,-0.0262,-0.0268,-0.03,-0.031,-0.0316,-0.032,-0.0372,-0.0382,-0.034,-0.0421,-0.043,-0.0435,-0.0405,-0.0473,-0.0475,-0.048,-0.0477,-0.0475,-0.035,0,0,0,0,0,0,-0.0232,-0.0237,-0.0236,-0.0262,-0.0268,-0.0259,-0.0308,-0.0316,-0.0318,-0.0323,-0.0372,-0.0382,-0.0422,-0.0431,-0.0438,-0.041,-0.0477,-0.0481,-0.0479,-0.0476,-0.0356,-0.0344,-0.0334,0,0,0,0,0,-0.0231,-0.0217,-0.0236,-0.0239,-0.0268,-0.0257,-0.026,-0.0289,-0.0316,-0.0301,-0.0337,-0.038,-0.042,-0.0431,-0.044,-0.0412,-0.0483,-0.0479,-0.0476,-0.0361,-0.0346,-0.0334,0,0,0,0,0,0,-0.0189,-0.0222,-0.0243,-0.024,-0.0241,-0.0266,-0.0252,-0.0277,-0.0293,-0.03,-0.0359,-0.037,-0.0369,-0.0403,-0.0415,-0.0406,-0.0459,-0.0458,-0.0369,-0.0356,-0.0345,-0.0317,-0.048,0,0,0,0,0,-0.018,-0.0186,-0.0207,-0.02,-0.0197,-0.0224,-0.0224,-0.0241,-0.026,-0.0269,-0.0306,-0.0342,-0.0361,-0.0368,-0.0397,-0.0383,-0.0439,-0.0372,-0.0361,-0.0351,-0.0335,-0.0399,-0.0392,-0.0464,-0.0464,-0.0464,0,0,-0.0161,-0.018,-0.0183,-0.0192,-0.0197,-0.0166,-0.0226,-0.0212,-0.0184,-0.0275,-0.0254,-0.0306,-0.0351,-0.0341,-0.0342,-0.0365,-0.0359,-0.0347,-0.0338,-0.0327,-0.0395,-0.0388,-0.0382,-0.0462,-0.0462,-0.0463,0,0,-0.0106,-0.0138,-0.0115,-0.0109,-0.0109,-0.0119,-0.0109,-0.0127,-0.0132,-0.0123,-0.0181,-0.0209,-0.0239,-0.0262,-0.0278,-0.0219,-0.0303,-0.0231,-0.0144,-0.0206,-0.0201,-0.0197,-0.0255,-0.0257,-0.0218,-0.0218,-0.0218,0,-0.0073,-0.0055,-0.0099,-0.0063,-0.0039,-0.0088,-0.0031,-0.0038,-0.0057,-0.005,-0.0099,-0.015,-0.0198,-0.0179,-0.0163,-0.0193,-0.0244,-0.019,-0.0192,-0.0189,-0.0187,-0.0248,-0.0252,-0.0212,-0.0212,-0.0213,-0.0214,0,-0.0,0.0026,0.005,0.0073,0.0092,0.0134,0.0125,0.0139,0.0112,0.0088,0.0083,0.0005,-0.0023,-0.0047,-0.0087,-0.0083,-0.0129,-0.0177,-0.0225,-0.0173,-0.024,-0.0246,-0.0203,-0.0205,-0.0207,-0.0208,0,0,0.007,0.0097,0.0111,0.0159,0.0172,0.0208,0.0256,0.0292,0.0335,0.0269,0.0304,0.0238,0.0168,0.0145,0.0077,0.0022,-0.0019,-0.006,-0.0066,-0.0113,-0.0156,-0.0196,-0.0209,-0.0073,-0.0073,-0.0074,-0.0207,0,0.0159,0.0254,0.024,0.0357,0.042,0.0401,0.046,0.0474,0.0459,0.0473,0.0374,0.0365,0.0252,0.0235,0.0164,0.0032,-0.0031,0.0022,-0.0202,-0.0208,-0.0248,-0.0215,-0.0184,-0.03,-0.0214,-0.0215,-0.0216,0,0.0248,0.0307,0.0429,0.0521,0.0548,0.0608,0.0699,0.0739,0.073,0.0712,0.0658,0.0562,0.0486,0.0369,0.0163,0.02,0.004,-0.0083,-0.0092,-0.0175,-0.026,-0.034,-0.0317,-0.075,-0.0227,-0.0227,-0.0226,0,0.0342,0.0447,0.0553,0.0585,0.0672,0.0739,0.0788,0.0816,0.088,0.0858,0.087,0.0739,0.0691,0.0469,0.0208,0.0182,-0.0035,-0.0107,-0.0296,-0.0301,-0.0339,-0.0347,-0.0756,-0.026,-0.0259,-0.0259,-0.0259,0,0.0445,0.0538,0.0614,0.0683,0.0841,0.0852,0.1004,0.1026,0.107,0.1171,0.0996,0.1031,0.0711,0.0541,0.0272,-0.0019,0.0007,-0.027,-0.0334,-0.0294,-0.0296,-0.0728,-0.0994,-0.0264,-0.0263,-0.0262,-0.0261,0,0.0533,0.057,0.0717,0.0839,0.0893,0.1008,0.116,0.126,0.1267,0.139,0.1385,0.1255,0.1041,0.0696,0.0355,0.0091,-0.0481,-0.0318,-0.0248,-0.03,-0.0885,-0.1142,-0.1611,-0.1947,-0.055,-0.0551,-0.0553,0,0.0579,0.0664,0.0842,0.0946,0.1015,0.1179,0.13,0.1367,0.1486,0.1551,0.1626,0.145,0.1396,0.0855,0.0346,-0.0135,-0.0562,-0.044,-0.0491,-0.0913,-0.1247,-0.1426,-0.1691,-0.0498,-0.0499,-0.0499,-0.05,0,0.0697,0.0759,0.0881,0.1088,0.1245,0.143,0.1609,0.1742,0.1844,0.1951,0.2065,0.2021,0.1501,0.1037,0.0345,-0.0004,-0.0821,-0.0471,-0.0931,-0.126,-0.1458,-0.181,-0.0428,-0.0506,-0.0506,-0.0505,-0.0505,-0.0504,0.0791,0.0895,0.1052,0.1252,0.1435,0.1675,0.1863,0.2055,0.2291,0.2513,0.2444,0.2509,0.1753,0.0819,0.0205,-0.0848,-0.0946,-0.1152,-0.143,-0.1572,-0.1908,-0.0538,-0.0676,-0.0676,-0.0676,-0.0677,-0.0677,0,0.0908,0.1019,0.1203,0.1453,0.1672,0.1749,0.2065,0.2266,0.2583,0.284,0.2969,0.2729,0.1765,0.0758,-0.0647,-0.1562,-0.1988,-0.211,-0.2383,-0.2621,-0.1392,-0.14,-0.1672,-0.1672,-0.1672,-0.1671,-0.1671,-0.167,0.0972,0.1161,0.125,0.1614,0.1796,0.2121,0.2325,0.2623,0.2891,0.3248,0.3397,0.3385,0.2674,0.0012,-0.1847,-0.2375,-0.327,-0.3413,-0.3915,-0.3061,-0.2992,-0.2927,-0.2998,-0.36,-0.3603,-0.5022,-0.5036,-0.5047]}],[{"header":{"parameterUnit":"m.s-1","parameterCategory":2,"la1":30.2991,"la2":30.254,"lo1":-89.0895,"lo2":-89.0444,"dx":0.0017,"dy":0.0017,"nx":28,"ny":28,"refTime":"2022-12-23T15:00:00:Z","depth":"2","parameterNumber":2,"parameterNumberName":"U-component_of_CURRENTS"},"data":[0,0,0,0,0,0,0,0,0,0,0,0,0,0,0,0,0,0,0,0,0,0,0,0,0,0,0,0,0,0,0,0,0,0,0,0,0,0,0,0,0,0,0,0,0,0,0,0,0,0,0,0,0,0,0,0,0,0,0.537,0.537,0,0.5321,0.532,0.5319,0.5278,0.5279,0.5279,0.5279,0.5179,0.5176,0.5173,0,0,0,0,0,0,0,0,0,0,0,0,0,0.5225,0.5229,0.537,0.537,0.537,0.5321,0.532,0.5318,0.5278,0.5279,0.5279,0.5279,0.518,0.5176,0.5173,0,0,0,0,0,0,0,0,0,0,0,0,0,0.5237,0.523,0.537,0.535,0.5348,0.5321,0.532,0.5318,0.5278,0.5279,0.5279,0.5279,0.5181,0.5177,0.5172,0.5138,0,0,0.5159,0.5157,0,0,0,0,0,0,0,0,0.5237,0.5241,0.5353,0.5351,0.5349,0.5313,0.5232,0.5258,0.5278,0.5297,0.5279,0.528,0.5223,0.5215,0.5196,0.5133,0.5129,0.5159,0.5156,0.5154,0.5153,0,0,0,0,0,0,0,0.5236,0.5242,0.5343,0.5353,0.5351,0.5274,0.5277,0.5235,0.5252,0.5295,0.5294,0.53,0.5221,0.52,0.5193,0.5127,0.5159,0.5155,0.5152,0.515,0.5086,0.5087,0,0,0,0,0,0,0.5268,0.5243,0.5345,0.5342,0.5301,0.5277,0.528,0.5318,0.5253,0.5247,0.53,0.5299,0.5207,0.5198,0.5189,0.5189,0.5154,0.515,0.5147,0.5085,0.5087,0.5088,0,0,0,0,0,0,0.5266,0.5279,0.5347,0.5294,0.5299,0.5282,0.5323,0.5317,0.5314,0.5259,0.525,0.5306,0.5207,0.5195,0.5158,0.5183,0.5148,0.5144,0.5084,0.5086,0.5087,0.516,0,0,0,0,0,0,0.5262,0.5279,0.5309,0.5299,0.5304,0.5351,0.5323,0.5316,0.532,0.5318,0.5261,0.5251,0.5207,0.5165,0.5154,0.5176,0.5141,0.5083,0.5085,0.5087,0.5156,0.5163,0.5169,0,0,0,0,0,0.5258,0.5303,0.5311,0.5323,0.535,0.5352,0.5347,0.5328,0.532,0.5324,0.5277,0.5253,0.5169,0.5161,0.5148,0.517,0.5082,0.5084,0.5086,0.5153,0.5162,0.5169,0,0,0,0,0,0,0.5226,0.5303,0.5312,0.5371,0.5372,0.5349,0.5352,0.5342,0.5307,0.5304,0.5247,0.5234,0.5219,0.5182,0.5175,0.516,0.5129,0.5128,0.5184,0.5192,0.5199,0.5248,0.5137,0,0,0,0,0,0.5244,0.5321,0.534,0.5385,0.5392,0.5375,0.5372,0.5365,0.5338,0.5325,0.5279,0.5239,0.5214,0.5193,0.516,0.5136,0.5156,0.5149,0.5155,0.5161,0.5194,0.523,0.5244,0.5094,0.5094,0.5094,0,0,0.5227,0.5296,0.5323,0.5387,0.5383,0.539,0.5373,0.5384,0.5384,0.5318,0.5292,0.526,0.5215,0.5196,0.5187,0.5166,0.5217,0.5164,0.5169,0.5199,0.5234,0.5249,0.5262,0.5096,0.5095,0.5095,0,0,0.5248,0.5309,0.537,0.5387,0.5423,0.5412,0.5426,0.541,0.5403,0.5375,0.5342,0.5332,0.526,0.525,0.5233,0.526,0.5257,0.5246,0.5309,0.5343,0.5357,0.5368,0.543,0.5447,0.5242,0.5242,0.5242,0,0.5212,0.5315,0.5372,0.5424,0.5431,0.543,0.5443,0.5437,0.5406,0.5403,0.5379,0.5331,0.5296,0.5303,0.5317,0.528,0.5304,0.5278,0.5355,0.5367,0.5378,0.5438,0.5456,0.5245,0.5245,0.5245,0.5244,0,0.5284,0.5338,0.5367,0.5447,0.5459,0.5473,0.548,0.548,0.5465,0.5452,0.5456,0.5415,0.5395,0.5386,0.5357,0.5418,0.5415,0.5366,0.5339,0.5398,0.5457,0.5474,0.5251,0.5249,0.5248,0.5247,0,0,0.524,0.5386,0.5391,0.5421,0.5473,0.5482,0.5502,0.5512,0.5537,0.5508,0.5538,0.5511,0.551,0.5497,0.5472,0.5506,0.561,0.5478,0.5478,0.5551,0.5715,0.5754,0.5777,0.5568,0.5571,0.5573,0.5732,0,0.5252,0.5361,0.5429,0.5461,0.5486,0.5507,0.5526,0.5542,0.5552,0.5578,0.5576,0.5593,0.5546,0.5559,0.5586,0.5611,0.5656,0.5574,0.5639,0.5643,0.5679,0.5798,0.5151,0.5242,0.5749,0.5752,0.5754,0,0.5295,0.5359,0.5421,0.5485,0.5496,0.5516,0.5561,0.5583,0.5633,0.5651,0.5681,0.5683,0.5749,0.5695,0.5783,0.5731,0.5745,0.5756,0.5761,0.579,0.5714,0.526,0.5253,0.5782,0.578,0.5778,0.5776,0,0.526,0.5346,0.5402,0.5422,0.5491,0.5515,0.5544,0.5597,0.5631,0.5722,0.5763,0.5815,0.5867,0.5891,0.5924,0.5862,0.6031,0.5932,0.5982,0.5985,0.5449,0.5401,0.6006,0.6006,0.6006,0.6005,0.6005,0,0.5264,0.5293,0.5393,0.5412,0.5444,0.5509,0.5553,0.5603,0.5693,0.5754,0.5807,0.589,0.5921,0.6001,0.5998,0.6084,0.609,0.6054,0.6046,0.5461,0.5415,0.5878,0.5861,0.6011,0.601,0.6009,0.6008,0,0.5222,0.53,0.5345,0.5419,0.5435,0.5462,0.5542,0.5577,0.5691,0.5788,0.5829,0.5977,0.6117,0.6148,0.6236,0.6201,0.6258,0.6272,0.5625,0.5543,0.6168,0.6152,0.6356,0.6359,0.6362,0.6364,0.6366,0,0.5226,0.5252,0.5325,0.5337,0.5369,0.5415,0.5434,0.5549,0.5612,0.5841,0.5893,0.6088,0.6187,0.6367,0.6225,0.6234,0.6394,0.5796,0.558,0.6241,0.6212,0.6192,0.6174,0.4871,0.4861,0.4852,0.4845,0,0.518,0.5216,0.5248,0.5273,0.5298,0.5317,0.5384,0.5442,0.5605,0.5684,0.5904,0.6026,0.6137,0.5866,0.5902,0.5828,0.5744,0.5639,0.6436,0.4949,0.4872,0.4835,0.4858,0.4768,0.4776,0.4782,0.4786,0.4789,0.5128,0.5135,0.5177,0.5188,0.5205,0.5214,0.5199,0.5157,0.5207,0.5167,0.5609,0.5504,0.5555,0.5245,0.5123,0.5,0.5411,0.5186,0.5196,0.5219,0.5085,0.5024,0.4924,0.4932,0.4939,0.4945,0.4951,0,0.492,0.5052,0.5077,0.507,0.4914,0.5086,0.5135,0.4898,0.4723,0.476,0.4756,0.4391,0.4226,0.4342,0.3956,0.4052,0.3817,0.4002,0.358,0.3663,0.3735,0.3509,0.2937,0.2932,0.2926,0.2922,0,0,0.4848,0.4775,0.4793,0.465,0.4735,0.4452,0.4449,0.4155,0.401,0.3682,0.3573,0.3784,0.414,0.3394,0.335,0.3095,0.3344,0.2977,0.4578,0.4155,0.422,0.4406,0.4157,0,0,0,0,0]},{"header":{"parameterUnit":"m.s-1","parameterCategory":2,"la1":30.2991,"la2":30.254,"lo1":-89.0895,"lo2":-89.0444,"dx":0.0017,"dy":0.0017,"nx":28,"ny":28,"refTime":"2022-12-23T15:00:00:Z","depth":"2","parameterNumber":3,"parameterNumberName":"V-component_of_CURRENTS"},"data":[0,0,0,0,0,0,0,0,0,0,0,0,0,0,0,0,0,0,0,0,0,0,0,0,0,0,0,0,0,0,0,0,0,0,0,0,0,0,0,0,0,0,0,0,0,0,0,0,0,0,0,0,0,0,0,0,0,0,-0.0233,-0.0233,0,-0.027,-0.0271,-0.0272,-0.0328,-0.0328,-0.0329,-0.033,-0.0422,-0.0424,-0.0425,0,0,0,0,0,0,0,0,0,0,0,0,0,-0.0173,-0.0174,-0.0233,-0.0233,-0.0233,-0.027,-0.0271,-0.0272,-0.0327,-0.0328,-0.0329,-0.033,-0.0421,-0.0423,-0.0425,0,0,0,0,0,0,0,0,0,0,0,0,0,-0.0205,-0.0174,-0.0233,-0.0264,-0.0267,-0.027,-0.0271,-0.0272,-0.0327,-0.0329,-0.033,-0.0331,-0.0421,-0.0423,-0.0426,-0.0416,0,0,-0.0433,-0.0434,0,0,0,0,0,0,0,0,-0.0203,-0.0207,-0.0259,-0.0262,-0.0266,-0.0294,-0.0283,-0.0322,-0.0327,-0.0306,-0.033,-0.0332,-0.0382,-0.0388,-0.0394,-0.0421,-0.0424,-0.0434,-0.0435,-0.0436,-0.0437,0,0,0,0,0,0,0,-0.0201,-0.0206,-0.0249,-0.0259,-0.0263,-0.0264,-0.0271,-0.0291,-0.0339,-0.0308,-0.0312,-0.0313,-0.0385,-0.0391,-0.0397,-0.0426,-0.0433,-0.0436,-0.0437,-0.0438,-0.0442,-0.044,0,0,0,0,0,0,-0.0193,-0.0204,-0.0248,-0.025,-0.0235,-0.0264,-0.0272,-0.0285,-0.0338,-0.0346,-0.0312,-0.0315,-0.0386,-0.0394,-0.04,-0.0367,-0.0436,-0.0438,-0.044,-0.0443,-0.0441,-0.044,0,0,0,0,0,0,-0.0192,-0.0197,-0.0247,-0.0226,-0.0232,-0.0264,-0.0279,-0.0285,-0.0288,-0.034,-0.035,-0.0308,-0.0388,-0.0397,-0.0402,-0.0372,-0.044,-0.0442,-0.0445,-0.0442,-0.044,-0.0316,0,0,0,0,0,0,-0.0191,-0.0197,-0.02,-0.0226,-0.0233,-0.0228,-0.0277,-0.0285,-0.0286,-0.0291,-0.0339,-0.035,-0.0389,-0.0397,-0.0404,-0.0377,-0.0444,-0.0446,-0.0444,-0.0441,-0.0322,-0.031,-0.03,0,0,0,0,0,-0.0188,-0.018,-0.02,-0.0205,-0.0238,-0.0226,-0.0229,-0.0257,-0.0285,-0.0269,-0.0304,-0.0348,-0.0386,-0.0398,-0.0406,-0.0379,-0.0448,-0.0444,-0.0441,-0.0327,-0.0313,-0.03,0,0,0,0,0,0,-0.0142,-0.0185,-0.0208,-0.0211,-0.0211,-0.0235,-0.0221,-0.0245,-0.026,-0.0268,-0.0326,-0.0337,-0.0335,-0.037,-0.0382,-0.0372,-0.0425,-0.0423,-0.0336,-0.0322,-0.0311,-0.0285,-0.0446,0,0,0,0,0,-0.0136,-0.0151,-0.0174,-0.0172,-0.0168,-0.0194,-0.0193,-0.021,-0.0228,-0.0237,-0.0274,-0.0309,-0.0327,-0.0335,-0.0362,-0.0348,-0.0404,-0.0338,-0.0327,-0.0317,-0.0301,-0.0365,-0.0359,-0.0429,-0.0429,-0.0429,0,0,-0.0113,-0.0141,-0.0146,-0.0163,-0.0168,-0.0136,-0.0196,-0.0181,-0.0153,-0.0243,-0.0222,-0.0273,-0.0317,-0.0307,-0.0308,-0.0331,-0.0325,-0.0313,-0.0304,-0.0293,-0.0361,-0.0355,-0.0349,-0.0427,-0.0427,-0.0428,0,0,-0.0059,-0.0098,-0.0082,-0.0077,-0.008,-0.0089,-0.0079,-0.0096,-0.0101,-0.0091,-0.0149,-0.0177,-0.0205,-0.0229,-0.0244,-0.0186,-0.027,-0.0198,-0.0112,-0.0174,-0.0169,-0.0165,-0.0223,-0.0226,-0.0185,-0.0185,-0.0185,0,-0.0023,-0.0015,-0.0066,-0.0035,-0.0011,-0.0059,-0.0001,-0.0007,-0.0026,-0.0018,-0.0067,-0.0118,-0.0165,-0.0147,-0.0131,-0.0159,-0.0211,-0.0157,-0.0159,-0.0157,-0.0155,-0.0216,-0.022,-0.0179,-0.0179,-0.018,-0.0181,0,0.0045,0.0065,0.0087,0.0101,0.0121,0.0163,0.0155,0.0169,0.0142,0.0119,0.0114,0.0037,0.0009,-0.0015,-0.0055,-0.0051,-0.0097,-0.0145,-0.0192,-0.0141,-0.0208,-0.0215,-0.0169,-0.0172,-0.0174,-0.0175,0,0,0.0112,0.0131,0.0144,0.0191,0.02,0.0237,0.0285,0.0322,0.0365,0.0299,0.0334,0.0268,0.0198,0.0176,0.0108,0.0053,0.0011,-0.0029,-0.0035,-0.0083,-0.0127,-0.0167,-0.018,-0.0042,-0.0043,-0.0043,-0.0177,0,0.0199,0.0286,0.0268,0.0385,0.0447,0.0429,0.0488,0.0503,0.0488,0.0503,0.0404,0.0394,0.0282,0.0265,0.0193,0.0062,-0.0001,0.0052,-0.0172,-0.0178,-0.0219,-0.0187,-0.0153,-0.027,-0.0185,-0.0186,-0.0187,0,0.0282,0.0336,0.0456,0.0548,0.0575,0.0635,0.0726,0.0767,0.0758,0.074,0.0686,0.059,0.0513,0.0397,0.0192,0.0229,0.0069,-0.0053,-0.0063,-0.0146,-0.0231,-0.031,-0.0287,-0.0199,-0.0198,-0.0197,-0.0196,0,0.0375,0.0475,0.058,0.0612,0.0699,0.0766,0.0815,0.0844,0.0908,0.0884,0.0896,0.0766,0.0717,0.0496,0.0235,0.021,-0.0008,-0.0079,-0.0268,-0.0273,-0.031,-0.0317,-0.0232,-0.0232,-0.0231,-0.0231,-0.0231,0,0.0473,0.0566,0.064,0.0709,0.0867,0.0878,0.103,0.1052,0.1096,0.1196,0.1022,0.1056,0.0736,0.0566,0.0298,0.0008,0.0034,-0.0243,-0.0306,-0.0265,-0.0267,-0.0259,-0.026,-0.0236,-0.0235,-0.0234,-0.0233,0,0.056,0.0596,0.0742,0.0865,0.0918,0.1034,0.1186,0.1285,0.1292,0.1414,0.1409,0.1278,0.1063,0.072,0.0379,0.0116,-0.0178,-0.0293,-0.022,-0.0272,-0.0423,-0.0416,-0.052,-0.0522,-0.0524,-0.0526,-0.0528,0,0.0604,0.0689,0.0867,0.0971,0.104,0.1203,0.1324,0.1392,0.151,0.1574,0.1648,0.1471,0.1405,0.0865,0.0369,-0.0111,-0.0177,-0.0414,-0.0463,-0.0399,-0.045,-0.044,-0.0431,-0.0468,-0.0469,-0.0469,-0.047,0,0.0721,0.0783,0.0905,0.1112,0.1269,0.1454,0.1633,0.1766,0.1867,0.196,0.2072,0.2016,0.1507,0.1025,0.0334,0.0009,-0.0341,-0.0444,-0.0392,-0.0393,-0.0359,-0.0407,-0.0398,-0.0476,-0.0476,-0.0475,-0.0475,-0.0475,0.0815,0.0919,0.1075,0.1276,0.1458,0.1699,0.1886,0.2046,0.2265,0.2395,0.2352,0.2231,0.1689,0.079,0.0237,-0.0371,-0.0348,-0.0588,-0.0582,-0.0576,-0.0538,-0.0509,-0.0648,-0.0648,-0.0649,-0.0649,-0.0649,0,0.0965,0.1042,0.1227,0.1476,0.1714,0.1772,0.2087,0.2262,0.2522,0.2557,0.2595,0.2093,0.1488,0.086,-0.0033,-0.0549,-0.0575,-0.0723,-0.0649,-0.0639,-0.0631,-0.0595,-0.0721,-0.0723,-0.0724,-0.0725,0,0,0.1037,0.1239,0.1329,0.1688,0.1843,0.217,0.2374,0.2573,0.2677,0.2749,0.2625,0.234,0.1633,0.0959,0.0266,-0.023,-0.0312,-0.0325,-0.0215,-0.0035,-0.0021,-0.0506,-0.0432,0,0,0,0,0]}],[{"header":{"parameterUnit":"m.s-1","parameterCategory":2,"la1":30.2991,"la2":30.254,"lo1":-89.0895,"lo2":-89.0444,"dx":0.0017,"dy":0.0017,"nx":28,"ny":28,"refTime":"2022-12-23T15:00:00:Z","depth":"4","parameterNumber":2,"parameterNumberName":"U-component_of_CURRENTS"},"data":[0,0,0,0,0,0,0,0,0,0,0,0,0,0,0,0,0,0,0,0,0,0,0,0,0,0,0,0,0,0,0,0,0,0,0,0,0,0,0,0,0,0,0,0,0,0,0,0,0,0,0,0,0,0,0,0,0,0,0.2226,0.2228,0,0.2349,0.235,0.2351,0.2432,0.2433,0.2433,0.2434,0.26,0.2603,0.2607,0,0,0,0,0,0,0,0,0,0,0,0,0,0.2137,0.2137,0.2226,0.2228,0.223,0.2348,0.235,0.2351,0.2432,0.2433,0.2433,0.2434,0.2599,0.2603,0.2608,0,0,0,0,0,0,0,0,0,0,0,0,0,0.2207,0.2138,0.2226,0.2285,0.2292,0.2348,0.235,0.2352,0.2432,0.2433,0.2434,0.2435,0.2597,0.2603,0.2608,0.2622,0,0,0.2625,0.2628,0,0,0,0,0,0,0,0,0.2203,0.221,0.2275,0.2281,0.2289,0.2378,0.238,0.2445,0.2431,0.2376,0.2434,0.2435,0.253,0.2541,0.2559,0.2629,0.2637,0.2626,0.2629,0.2632,0.2633,0,0,0,0,0,0,0,0.2198,0.2206,0.2273,0.2277,0.2285,0.2332,0.2342,0.2392,0.2445,0.2381,0.2388,0.2404,0.2534,0.2553,0.2563,0.2639,0.2626,0.2631,0.2634,0.2636,0.2919,0.2923,0,0,0,0,0,0,0.2181,0.22,0.2269,0.2277,0.225,0.2332,0.2344,0.2347,0.2444,0.246,0.2403,0.2408,0.2543,0.2557,0.2569,0.2762,0.2632,0.2637,0.264,0.2915,0.292,0.2924,0,0,0,0,0,0,0.2179,0.2186,0.2264,0.2244,0.2257,0.2332,0.2335,0.2349,0.242,0.246,0.2477,0.2468,0.2544,0.2562,0.2683,0.2762,0.2639,0.2645,0.291,0.2916,0.2922,0.3037,0,0,0,0,0,0,0.2175,0.2183,0.2206,0.2242,0.2258,0.2335,0.2335,0.235,0.2426,0.2435,0.252,0.2534,0.2546,0.2675,0.2689,0.2768,0.2649,0.2905,0.2913,0.292,0.3028,0.3046,0.3062,0,0,0,0,0,0.2171,0.219,0.2206,0.2216,0.2277,0.2337,0.2351,0.2406,0.2429,0.2473,0.2547,0.2534,0.2733,0.2683,0.2698,0.2781,0.2901,0.291,0.2919,0.302,0.3043,0.3062,0,0,0,0,0,0,0.2173,0.2201,0.2219,0.2249,0.2308,0.2352,0.2405,0.2436,0.2527,0.2555,0.2586,0.2606,0.2744,0.2749,0.2693,0.2887,0.2815,0.2828,0.2887,0.2908,0.2925,0.2932,0.2654,0,0,0,0,0,0.2178,0.2198,0.2242,0.2276,0.2309,0.2367,0.2409,0.2448,0.2518,0.256,0.2625,0.2702,0.2785,0.2836,0.2902,0.3005,0.3006,0.307,0.3087,0.3101,0.312,0.3182,0.3205,0.2955,0.2954,0.2954,0,0,0.2187,0.221,0.2222,0.2279,0.2331,0.2395,0.2397,0.2478,0.2556,0.2564,0.2712,0.2769,0.2828,0.2953,0.3014,0.2973,0.3178,0.3113,0.3124,0.3136,0.3194,0.3218,0.3239,0.2961,0.296,0.2959,0,0,0.2212,0.2242,0.2271,0.2325,0.2411,0.2451,0.2486,0.257,0.264,0.2769,0.2807,0.2918,0.3036,0.3098,0.314,0.3291,0.3268,0.3318,0.341,0.3471,0.3491,0.3509,0.355,0.357,0.3323,0.3323,0.3323,0,0.2245,0.2268,0.2298,0.2355,0.2415,0.2482,0.2554,0.2632,0.2754,0.283,0.2839,0.3056,0.3106,0.3255,0.332,0.333,0.3352,0.3322,0.349,0.3508,0.3524,0.3562,0.3583,0.333,0.3329,0.3328,0.3328,0,0.2269,0.2329,0.2364,0.245,0.2519,0.2597,0.2696,0.28,0.2892,0.2967,0.3154,0.3231,0.3356,0.3396,0.3413,0.3569,0.3544,0.3502,0.3428,0.3556,0.3588,0.3608,0.3339,0.3337,0.3335,0.3333,0,0,0.2261,0.2362,0.2385,0.2448,0.2581,0.2639,0.279,0.2935,0.3053,0.3183,0.3333,0.3491,0.3539,0.3591,0.3627,0.3691,0.3833,0.3663,0.3663,0.3686,0.3968,0.3716,0.3712,0.382,0.3824,0.3827,0.3945,0,0.2297,0.2392,0.2445,0.2583,0.2649,0.2769,0.29,0.3046,0.3184,0.3348,0.3459,0.3617,0.361,0.3695,0.3762,0.3828,0.3891,0.3804,0.3856,0.3858,0.3603,0.3728,0.384,0.396,0.3964,0.3967,0.397,0,0.2295,0.2373,0.2487,0.2654,0.27,0.2804,0.3027,0.3159,0.3387,0.35,0.3662,0.3748,0.3917,0.3866,0.4029,0.3978,0.3998,0.4016,0.4019,0.3755,0.3641,0.3807,0.4005,0.4002,0.3999,0.3997,0.3995,0,0.2234,0.2401,0.2492,0.255,0.2748,0.2858,0.2992,0.3218,0.3353,0.3617,0.3737,0.3914,0.4037,0.4095,0.4158,0.4117,0.429,0.422,0.4006,0.3988,0.4125,0.4104,0.4317,0.4317,0.4317,0.4316,0.4316,0,0.2207,0.2298,0.2483,0.2539,0.2694,0.2853,0.3048,0.3215,0.3457,0.3614,0.3818,0.3941,0.4106,0.4213,0.4221,0.4178,0.4342,0.4049,0.4009,0.4172,0.4156,0.4138,0.4116,0.4321,0.432,0.4319,0.4318,0,0.2102,0.2219,0.2349,0.2579,0.266,0.278,0.3052,0.3188,0.3446,0.3658,0.3752,0.4016,0.4156,0.4264,0.4378,0.4243,0.4234,0.4171,0.4367,0.4333,0.3876,0.386,0.3938,0.393,0.3924,0.3918,0.3914,0,0.2036,0.2095,0.2342,0.2426,0.2541,0.274,0.2872,0.3153,0.3293,0.3657,0.3732,0.3981,0.4116,0.4074,0.4202,0.4202,0.4141,0.4101,0.3963,0.3888,0.3843,0.3836,0.3829,0.3903,0.3901,0.39,0.3898,0,0.1937,0.2048,0.2152,0.2319,0.2471,0.2621,0.2836,0.2903,0.3227,0.3486,0.3617,0.3695,0.3847,0.3912,0.3955,0.3938,0.4106,0.4031,0.4043,0.3912,0.3846,0.3807,0.3807,0.3875,0.3879,0.3881,0.3882,0,0.1866,0.1904,0.205,0.2181,0.2349,0.2443,0.2584,0.2742,0.29,0.3288,0.3316,0.3574,0.3807,0.3778,0.3812,0.3789,0.3713,0.3554,0.3589,0.3615,0.3452,0.3317,0.3172,0,0,0,0,0,0.1776,0.1794,0.1901,0.2022,0.2178,0.2279,0.2528,0.2677,0.2971,0.2977,0.3136,0.3256,0.3335,0.3464,0.3373,0.3667,0.3725,0.3543,0.3558,0.3749,0.3775,0.3611,0,0,0,0,0,0,0.171,0.1791,0.1828,0.1854,0.1904,0.2058,0.22,0.2416,0.2435,0.2739,0.2801,0.303,0.3159,0.3338,0.3297,0.3335,0.327,0.3704,0.3695,0.3734,0.3758,0.3779,0.362,0,0,0,0,0]},{"header":{"parameterUnit":"m.s-1","parameterCategory":2,"la1":30.2991,"la2":30.254,"lo1":-89.0895,"lo2":-89.0444,"dx":0.0017,"dy":0.0017,"nx":28,"ny":28,"refTime":"2022-12-23T15:00:00:Z","depth":"4","parameterNumber":3,"parameterNumberName":"V-component_of_CURRENTS"},"data":[0,0,0,0,0,0,0,0,0,0,0,0,0,0,0,0,0,0,0,0,0,0,0,0,0,0,0,0,0,0,0,0,0,0,0,0,0,0,0,0,0,0,0,0,0,0,0,0,0,0,0,0,0,0,0,0,0,0,0.0547,0.0546,0,0.0492,0.0492,0.0491,0.0467,0.0467,0.0467,0.0467,0.039,0.0388,0.0386,0,0,0,0,0,0,0,0,0,0,0,0,0,0.0541,0.0542,0.0547,0.0546,0.0546,0.0492,0.0492,0.0491,0.0467,0.0467,0.0467,0.0468,0.0391,0.0389,0.0386,0,0,0,0,0,0,0,0,0,0,0,0,0,0.052,0.0542,0.0547,0.0528,0.0526,0.0493,0.0492,0.0491,0.0467,0.0467,0.0467,0.0468,0.0392,0.0389,0.0385,0.0359,0,0,0.0375,0.0374,0,0,0,0,0,0,0,0,0.0521,0.052,0.0531,0.0529,0.0527,0.0488,0.0461,0.0446,0.0467,0.0488,0.0467,0.0468,0.0421,0.0416,0.0403,0.0356,0.0352,0.0375,0.0373,0.0372,0.0371,0,0,0,0,0,0,0,0.0523,0.0522,0.0524,0.0531,0.0528,0.0492,0.049,0.0458,0.0452,0.0486,0.0485,0.048,0.042,0.0407,0.0401,0.0351,0.0375,0.0372,0.037,0.0369,0.0267,0.0267,0,0,0,0,0,0,0.0536,0.0524,0.0526,0.0522,0.0526,0.0493,0.049,0.0499,0.0453,0.0447,0.048,0.048,0.0412,0.0405,0.0399,0.0377,0.0372,0.0368,0.0367,0.0268,0.0267,0.0266,0,0,0,0,0,0,0.0537,0.0538,0.0528,0.0522,0.0518,0.0493,0.0503,0.0498,0.0495,0.0449,0.0442,0.0484,0.0412,0.0403,0.0376,0.0373,0.0367,0.0364,0.0269,0.0268,0.0267,0.0325,0,0,0,0,0,0,0.0537,0.0538,0.0553,0.0523,0.0519,0.052,0.0502,0.0497,0.0492,0.0491,0.045,0.0442,0.0412,0.0381,0.0373,0.0368,0.0361,0.027,0.0268,0.0267,0.0324,0.0326,0.0328,0,0,0,0,0,0.0537,0.0559,0.0555,0.0555,0.054,0.0521,0.0515,0.0496,0.0492,0.0494,0.0463,0.0444,0.0366,0.0378,0.0368,0.0363,0.027,0.0269,0.0267,0.0323,0.0326,0.0328,0,0,0,0,0,0,0.056,0.0558,0.0552,0.0572,0.0553,0.0518,0.0522,0.0505,0.0482,0.0485,0.0441,0.0431,0.0403,0.0372,0.0387,0.0327,0.0313,0.0309,0.0358,0.036,0.0362,0.0389,0.0358,0,0,0,0,0,0.0574,0.0595,0.0572,0.0588,0.0583,0.0554,0.0546,0.0533,0.0506,0.0498,0.0465,0.0425,0.0386,0.0368,0.0331,0.0303,0.0261,0.0289,0.0291,0.0293,0.0306,0.0235,0.0232,0.0261,0.0261,0.0261,0,0,0.059,0.0589,0.0603,0.0595,0.0582,0.0581,0.0551,0.0547,0.0544,0.0492,0.048,0.0435,0.038,0.0347,0.0332,0.0325,0.026,0.0291,0.0294,0.0306,0.0233,0.023,0.0228,0.026,0.026,0.0261,0,0,0.0625,0.063,0.0655,0.0644,0.0631,0.0611,0.0615,0.0584,0.057,0.0548,0.0504,0.0461,0.0408,0.0363,0.0334,0.0323,0.0274,0.0307,0.0339,0.027,0.0267,0.0265,0.0202,0.0193,0.0307,0.0307,0.0307,0,0.0639,0.0671,0.0656,0.0667,0.0668,0.063,0.0647,0.0622,0.0584,0.0573,0.0555,0.046,0.0414,0.0364,0.0358,0.0329,0.0285,0.034,0.0274,0.0271,0.0267,0.0203,0.0193,0.031,0.0309,0.0309,0.0309,0,0.0686,0.0709,0.072,0.0729,0.0724,0.0734,0.0701,0.0689,0.0666,0.0634,0.0585,0.0509,0.0456,0.0421,0.0389,0.0336,0.0311,0.0288,0.0276,0.0268,0.02,0.0189,0.0314,0.0313,0.0312,0.0311,0,0,0.0729,0.0751,0.0758,0.0778,0.0763,0.0768,0.0761,0.0744,0.0747,0.0681,0.0668,0.0574,0.0532,0.0495,0.0431,0.0365,0.0293,0.0324,0.0319,0.0276,0.0142,0.0126,0.0111,0.0259,0.0257,0.0256,0.0104,0,0.0771,0.0819,0.0815,0.0858,0.0879,0.0848,0.0851,0.0827,0.079,0.0764,0.0667,0.063,0.0559,0.0535,0.0455,0.0341,0.0266,0.0337,0.0145,0.0139,0.0137,0.0099,0.0251,0.0095,0.0092,0.009,0.0089,0,0.0824,0.085,0.0909,0.0936,0.0944,0.0967,0.0974,0.0968,0.0911,0.088,0.081,0.0734,0.0631,0.0573,0.0365,0.0415,0.0289,0.0189,0.018,0.0142,0.0102,0.0102,0.0067,0.0068,0.007,0.0071,0.0073,0,0.088,0.0918,0.0978,0.0986,0.1005,0.1035,0.1047,0.1016,0.1026,0.096,0.0952,0.0807,0.075,0.0568,0.0362,0.0362,0.0131,0.0101,-0.004,-0.0043,-0.0006,-0.0001,-0.0052,-0.0052,-0.0052,-0.0052,-0.0051,0,0.0929,0.0978,0.1021,0.1053,0.1131,0.1116,0.1183,0.1162,0.1146,0.1164,0.1029,0.0993,0.0748,0.0585,0.0384,0.0141,0.0141,-0.0039,-0.0086,0.002,0.0029,-0.0015,-0.0009,-0.0057,-0.0056,-0.0055,-0.0054,0,0.0984,0.101,0.1086,0.1137,0.1168,0.1228,0.1297,0.1334,0.1301,0.1317,0.1303,0.1135,0.0915,0.0654,0.0354,0.0186,-0.0055,-0.0144,-0.0004,-0.004,-0.019,-0.0179,-0.032,-0.0322,-0.0324,-0.0325,-0.0326,0,0.1014,0.1062,0.1165,0.1224,0.1263,0.135,0.1417,0.1424,0.1461,0.1398,0.141,0.121,0.1066,0.0637,0.035,-0.0046,-0.0104,-0.0229,-0.0224,-0.0188,-0.022,-0.0206,-0.0193,-0.0329,-0.0329,-0.033,-0.033,0,0.1067,0.112,0.1185,0.1316,0.1414,0.1509,0.1598,0.1632,0.163,0.1603,0.1489,0.1245,0.0992,0.0641,0.0335,0.005,-0.0149,-0.0247,-0.0246,-0.0243,-0.02,-0.0227,-0.0212,-0.0336,-0.0335,-0.0334,-0.0334,0,0.1119,0.118,0.1284,0.1394,0.1523,0.1628,0.1664,0.1694,0.1719,0.1636,0.1596,0.1299,0.1127,0.069,0.0407,0.0124,0.0042,-0.005,-0.006,-0.0058,0.0058,0.0153,0.0082,0,0,0,0,0,0.1154,0.1231,0.1343,0.1471,0.1599,0.1682,0.1769,0.1785,0.1783,0.1721,0.1656,0.141,0.0959,0.076,0.0473,0.0366,-0.0007,0.0019,-0.0116,-0.0366,-0.036,-0.0271,0,0,0,0,0,0,0.1182,0.1299,0.1351,0.1519,0.1617,0.177,0.1835,0.183,0.178,0.1722,0.1489,0.1348,0.0916,0.1138,0.0477,0.0386,0.0259,-0.0195,-0.0201,-0.037,-0.0364,-0.0359,-0.0265,0,0,0,0,0]}]]